Location: *
(50.3194°N, 7.1067°E)
Time: 05:07:02
(UTC+00:00)

Cosmos 1821 Rocket - Pass Details

Date: 22 September 2019
Orbit: 944 x 1005 km, 82.9° (Epoch: 15 October)

Event Time Altitude Azimuth Distance (km) Brightness Sun altitude
Rises 20:35:51 0° 347° (NNW) 3,659 7.8 -28.1°
Reaches altitude 10° 20:38:24 10° 345° (NNW) 2,701 7.0 -28.4°
Maximum altitude 20:44:26 61° 267° (W) 1,077 4.3 -29.1°
Enters shadow 20:45:40 51° 221° (SW) 1,187 4.3 -29.3°
